Simultaneous Nadir Overpasses (SNOs) Predictions

Prediction of SNOs between GOES-17 and METOP-A Satellite Orbit:

Table of predicted SNOs for the next 14.0 days since TLE Epoch: 11/13/2020
Index Date Time (GOES-17) GOES-17 Lat,Lon METOP-A Lat,Lon Distance(km) Time Diff (sec)
1 11/14/2020 17:42:17 -0.05,-137.23 0.34,-138.91 190.94 80
2 11/15/2020 17:24:18 -0.05,-137.23 -0.77,-133.93 375.74 80
3 11/17/2020 05:40:38 0.04,-137.21 -0.27,-138.56 153.60 80
4 11/18/2020 05:22:39 0.04,-137.20 0.83,-133.58 412.66 80
5 11/19/2020 17:38:51 -0.03,-137.19 0.16,-138.18 112.35 80
6 11/20/2020 17:20:51 -0.03,-137.18 -0.89,-133.19 453.73 80
7 11/22/2020 05:37:11 0.02,-137.16 -0.15,-137.82 76.36 80
8 11/23/2020 05:19:11 0.02,-137.15 0.95,-132.85 489.58 80
9 11/24/2020 17:35:24 -0.02,-137.13 0.03,-137.45 35.93 80
10 11/27/2020 05:36:25 0.01,-137.09 0.04,-137.10 3.41 80
